| time (UTC) | temp C | wind direction | speed KPH | gust KPH | rain 1hr cm | rain 24hr cm | rain mn cm | humidity % | barometer mb |
| 20260508001530 | 8 | 227 | 1.6 | 6.4 | 0.00 | 3.40 | 3.40 | 94 | 1002.0 |
| 20260508000028 | 8 | 113 | 1.6 | 4.8 | 0.00 | 3.40 | 3.40 | 94 | 1002.0 |
| 20260507234535 | 8 | 86 | 0.0 | 6.4 | 0.00 | 3.40 | 3.40 | 94 | 1002.0 |
| 20260507233033 | 7 | 226 | 0.0 | 6.4 | 0.00 | 3.40 | 3.40 | 94 | 1001.9 |
| 20260507231529 | 8 | 248 | 1.6 | 11.3 | 0.00 | 3.40 | 3.40 | 94 | 1002.0 |
| 20260507230026 | 8 | 199 | 3.2 | 12.9 | 0.00 | 3.40 | 3.40 | 94 | 1002.1 |
| 20260507224526 | 8 | 131 | 0.0 | 11.3 | 0.00 | 3.40 | 3.40 | 94 | 1002.1 |
| 20260507223026 | 8 | 143 | 6.4 | 12.9 | 0.00 | 3.40 | 3.40 | 94 | 1001.8 |
| 20260507221525 | 9 | 201 | 6.4 | 17.7 | 0.00 | 3.40 | 3.40 | 94 | 1001.9 |
| 20260507220024 | 9 | 198 | 6.4 | 17.7 | 0.00 | 3.40 | 3.40 | 94 | 1001.7 |
| 20260507214624 | 9 | 154 | 8.0 | 24.1 | 0.00 | 3.40 | 3.40 | 94 | 1002.0 |
| 20260507213022 | 10 | 153 | 11.3 | 33.8 | 0.00 | 3.40 | 3.40 | 94 | 1002.2 |
| 20260507211525 | 10 | 194 | 11.3 | 25.7 | 0.05 | 3.40 | 3.40 | 94 | 1001.9 |
| 20260507210018 | 10 | 167 | 6.4 | 24.1 | 0.15 | 3.40 | 3.40 | 94 | 1001.7 |
| 20260507204516 | 10 | 124 | 11.3 | 22.5 | 0.23 | 3.40 | 3.40 | 94 | 1001.2 |
| 20260507203014 | 10 | 165 | 6.4 | 16.1 | 0.41 | 3.40 | 3.40 | 94 | 1002.3 |
| 20260507201515 | 10 | 154 | 4.8 | 12.9 | 0.64 | 3.35 | 3.35 | 94 | 1003.1 |
| 20260507200008 | 10 | 174 | 6.4 | 12.9 | 0.91 | 3.25 | 3.25 | 94 | 1003.4 |
| 20260507194508 | 10 | 193 | 6.4 | 12.9 | 1.32 | 3.15 | 3.15 | 94 | 1003.4 |
| 20260507193005 | 9 | 204 | 4.8 | 12.9 | 1.55 | 2.97 | 2.97 | 94 | 1003.9 |
| 20260507191502 | 8 | 120 | 3.2 | 12.9 | 1.55 | 2.69 | 2.69 | 94 | 1004.4 |
| 20260507190101 | 8 | 214 | 1.6 | 16.1 | 1.68 | 2.31 | 2.31 | 94 | 1005.0 |
| 20260507184600 | 8 | 181 | 4.8 | 17.7 | 1.45 | 1.83 | 1.83 | 94 | 1004.9 |
| 20260507183100 | 8 | 144 | 6.4 | 17.7 | 1.14 | 1.42 | 1.42 | 94 | 1004.8 |
| 20260507181558 | 7 | 162 | 4.8 | 20.9 | 0.89 | 1.12 | 1.12 | 93 | 1004.6 |
| 20260507180106 | 8 | 205 | 11.3 | 27.4 | 0.41 | 0.61 | 0.61 | 93 | 1005.3 |
| 20260507174630 | 8 | 222 | 14.5 | 29.0 | 0.15 | 0.36 | 0.36 | 94 | 1004.3 |
| 20260507173056 | 8 | 167 | 9.7 | 38.6 | 0.10 | 0.33 | 0.33 | 93 | 1004.6 |
| 20260507171608 | 9 | 154 | 9.7 | 22.5 | 0.05 | 0.23 | 0.23 | 94 | 1005.0 |
| 20260507170051 | 9 | 234 | 12.9 | 24.1 | 0.13 | 0.23 | 0.23 | 93 | 1004.9 |
| 20260507164553 | 8 | 177 | 14.5 | 32.2 | 0.18 | 0.23 | 0.23 | 94 | 1005.4 |
| 20260507163047 | 8 | 189 | 9.7 | 24.1 | 0.18 | 0.23 | 0.23 | 93 | 1006.1 |
| 20260507161547 | 8 | 193 | 12.9 | 32.2 | 0.15 | 0.18 | 0.18 | 93 | 1006.5 |
| 20260507160108 | 8 | 192 | 11.3 | 24.1 | 0.05 | 0.10 | 0.10 | 93 | 1006.8 |
| 20260507154540 | 8 | 173 | 11.3 | 25.7 | 0.00 | 0.05 | 0.05 | 93 | 1007.1 |
| 20260507153038 | 8 | 154 | 11.3 | 30.6 | 0.00 | 0.05 | 0.05 | 93 | 1007.6 |
| 20260507151534 | 8 | 200 | 11.3 | 22.5 | 0.00 | 0.05 | 0.05 | 93 | 1008.2 |
| 20260507150037 | 8 | 156 | 11.3 | 35.4 | 0.00 | 0.05 | 0.05 | 93 | 1008.3 |
| 20260507144532 | 8 | 229 | 11.3 | 32.2 | 0.00 | 0.05 | 0.05 | 93 | 1008.4 |
| 20260507143031 | 8 | 203 | 8.0 | 29.0 | 0.00 | 0.05 | 0.05 | 94 | 1008.6 |
| 20260507141528 | 8 | 221 | 9.7 | 29.0 | 0.00 | 0.05 | 0.05 | 94 | 1009.1 |
| 20260507140037 | 8 | 169 | 11.3 | 35.4 | 0.00 | 0.05 | 0.05 | 94 | 1009.4 |
| 20260507134526 | 8 | 167 | 8.0 | 27.4 | 0.00 | 0.05 | 0.05 | 94 | 1009.5 |
| 20260507133025 | 8 | 231 | 9.7 | 20.9 | 0.00 | 0.05 | 0.05 | 94 | 1009.7 |
| 20260507131541 | 8 | 199 | 8.0 | 33.8 | 0.00 | 0.05 | 0.05 | 94 | 1010.0 |
| 20260507130022 | 8 | 184 | 14.5 | 37.0 | 0.00 | 0.05 | 0.05 | 94 | 1009.8 |
| 20260507124523 | 8 | 178 | 12.9 | 32.2 | 0.03 | 0.05 | 0.05 | 94 | 1009.9 |
| 20260507123026 | 9 | 196 | 14.5 | 38.6 | 0.03 | 0.05 | 0.05 | 94 | 1009.7 |
| 20260507121518 | 9 | 153 | 12.9 | 29.0 | 0.03 | 0.05 | 0.05 | 94 | 1009.9 |
| 20260507120026 | 8 | 229 | 9.7 | 27.4 | 0.03 | 0.05 | 0.05 | 94 | 1009.7 |
| 20260507114511 | 8 | 178 | 6.4 | 38.6 | 0.03 | 0.03 | 0.03 | 94 | 1010.3 |
| 20260507113008 | 8 | 165 | 11.3 | 35.4 | 0.03 | 0.03 | 0.03 | 94 | 1010.8 |
| 20260507111506 | 8 | 143 | 11.3 | 30.6 | 0.03 | 0.03 | 0.03 | 94 | 1010.8 |
| 20260507110003 | 8 | 181 | 9.7 | 29.0 | 0.03 | 0.03 | 0.03 | 94 | 1011.0 |
| 20260507104504 | 8 | 232 | 11.3 | 30.6 | 0.00 | 0.00 | 0.00 | 94 | 1010.7 |
| 20260507103100 | 7 | 186 | 9.7 | 25.7 | 0.00 | 0.00 | 0.00 | 94 | 1011.0 |
| 20260507101540 | 7 | 166 | 9.7 | 27.4 | 0.00 | 0.00 | 0.00 | 94 | 1011.6 |
| 20260507100051 | 7 | 150 | 6.4 | 22.5 | 0.00 | 0.00 | 0.00 | 94 | 1011.4 |
| 20260507094539 | 8 | 150 | 6.4 | 25.7 | 0.00 | 0.00 | 0.00 | 94 | 1011.6 |
| 20260507093036 | 8 | 145 | 6.4 | 25.7 | 0.00 | 0.00 | 0.00 | 94 | 1011.7 |
| 20260507091539 | 8 | 174 | 6.4 | 19.3 | 0.00 | 0.00 | 0.00 | 94 | 1011.5 |
| 20260507090030 | 8 | 194 | 8.0 | 19.3 | 0.00 | 0.00 | 0.00 | 94 | 1011.6 |
| 20260507084544 | 8 | 263 | 9.7 | 29.0 | 0.00 | 0.00 | 0.00 | 94 | 1011.9 |
| 20260507083026 | 7 | 171 | 6.4 | 17.7 | 0.00 | 0.00 | 0.00 | 94 | 1012.0 |
| 20260507081523 | 7 | 138 | 6.4 | 14.5 | 0.00 | 0.00 | 0.00 | 94 | 1012.2 |
| 20260507080021 | 7 | 211 | 3.2 | 11.3 | 0.00 | 0.00 | 0.00 | 93 | 1012.4 |
| 20260507074520 | 7 | 61 | 3.2 | 12.9 | 0.00 | 0.00 | 0.00 | 93 | 1012.4 |
| 20260507073022 | 7 | 149 | 4.8 | 11.3 | 0.00 | 0.00 | 0.00 | 93 | 1013.0 |
| 20260507071517 | 7 | 198 | 6.4 | 17.7 | 0.00 | 0.00 | 0.00 | 93 | 1013.1 |
| 20260507070018 | 7 | 209 | 6.4 | 20.9 | 0.00 | 0.00 | 0.00 | 93 | 1013.2 |
| 20260507064509 | 8 | 207 | 4.8 | 19.3 | 0.00 | 0.00 | 0.00 | 93 | 1013.5 |
| 20260507063010 | 8 | 187 | 6.4 | 14.5 | 0.00 | 0.00 | 0.00 | 93 | 1014.0 |
| 20260507061504 | 8 | 201 | 1.6 | 9.7 | 0.00 | 0.00 | 0.00 | 93 | 1014.1 |
| 20260507060001 | 7 | 167 | 3.2 | 9.7 | 0.00 | 0.00 | 0.00 | 93 | 1014.2 |
| 20260507054559 | 7 | 182 | 1.6 | 6.4 | 0.00 | 0.00 | 0.00 | 93 | 1014.4 |
| 20260507053058 | 7 | 165 | 0.0 | 8.0 | 0.00 | 0.00 | 0.00 | 93 | 1014.9 |
| 20260507051600 | 7 | 150 | 3.2 | 8.0 | 0.00 | 0.00 | 0.00 | 93 | 1015.1 |
| 20260507050105 | 7 | 192 | 1.6 | 4.8 | 0.00 | 0.00 | 0.00 | 93 | 1015.5 |
| 20260507044553 | 7 | 171 | 1.6 | 8.0 | 0.00 | 0.00 | 0.00 | 93 | 1016.1 |
| 20260507043046 | 7 | 190 | 0.0 | 4.8 | 0.00 | 0.00 | 0.00 | 93 | 1016.2 |
| 20260507041545 | 7 | 212 | 1.6 | 4.8 | 0.00 | 0.00 | 0.00 | 93 | 1016.5 |
| 20260507040042 | 7 | 168 | 0.0 | 3.2 | 0.00 | 0.00 | 0.00 | 92 | 1016.7 |
| 20260507034542 | 7 | 187 | 0.0 | 6.4 | 0.00 | 0.00 | 0.00 | 92 | 1016.9 |
| 20260507033042 | 7 | 178 | 1.6 | 6.4 | 0.00 | 0.00 | 0.00 | 92 | 1017.1 |
| 20260507031536 | 7 | 182 | 1.6 | 6.4 | 0.00 | 0.00 | 0.00 | 92 | 1017.4 |
| 20260507030037 | 7 | 163 | 1.6 | 8.0 | 0.00 | 0.00 | 0.00 | 92 | 1017.6 |
| 20260507024542 | 7 | 186 | 1.6 | 8.0 | 0.00 | 0.00 | 0.00 | 92 | 1017.8 |
| 20260507023032 | 7 | 173 | 3.2 | 8.0 | 0.00 | 0.00 | 0.00 | 91 | 1018.1 |
| 20260507021545 | 8 | 187 | 3.2 | 12.9 | 0.00 | 0.00 | 0.00 | 91 | 1018.2 |
| 20260507020030 | 8 | 136 | 3.2 | 6.4 | 0.00 | 0.00 | 0.00 | 91 | 1018.1 |
| 20260507014528 | 8 | 206 | 6.4 | 11.3 | 0.00 | 0.00 | 0.00 | 91 | 1018.2 |
| 20260507013034 | 8 | 213 | 3.2 | 11.3 | 0.00 | 0.00 | 0.00 | 91 | 1018.3 |
| 20260507011531 | 8 | 183 | 4.8 | 11.3 | 0.00 | 0.00 | 0.00 | 91 | 1018.4 |
| 20260507010037 | 8 | 152 | 4.8 | 12.9 | 0.00 | 0.00 | 0.00 | 91 | 1018.7 |
| 20260507004525 | 8 | 142 | 3.2 | 9.7 | 0.00 | 0.00 | 0.00 | 91 | 1018.6 |
| 20260507003024 | 8 | 185 | 4.8 | 16.1 | 0.00 | 0.00 | 0.00 | 91 | 1018.5 |